Weather History for Greenville/Spartanburg, SC

Change the Weather History Date:

Tuesday, April 9, 2013

  Actual Average Record
Temperature  
Mean Temperature 68 °F 59 °F  
Max Temperature 82 °F 71 °F 89 °F (1965)
Min Temperature 54 °F 47 °F 27 °F (1972)
Degree Days  
Heating Degree Days 0 7  
Month to date heating degree days 73 70  
Since 1 July heating degree days 2813 2903  
Cooling Degree Days 3 1  
Month to date cooling degree days 4 9  
Year to date cooling degree days 6 17  
Growing Degree Days 18 (Base 50)    
Moisture  
Dew Point 54 °F    
Average Humidity 62    
Maximum Humidity 86    
Minimum Humidity 37    
Precipitation  
Precipitation 0.00 in 0.12 in 1.92 in (1998)
Month to date precipitation 0.67 1.05  
Year to date precipitation 13.34 13.36  
Snow  
Snow 0.00 in 0.00 in T in (1928)
Month to date snowfall 0.0 0.0  
Since 1 July snowfall 2.0 4.7  
Snow Depth 0.00 in    
Sea Level Pressure  
Sea Level Pressure 30.12 in    
Wind  
Wind Speed 6 mph (SSW)    
Max Wind Speed 20 mph    
Max Gust Speed 23 mph    
Visibility 10 miles    
Events      
T = Trace of Precipitation, MM = Missing Value Source: NWS Daily Summary

Daily Weather History Graph

Daily Weather History Graph

Search for Another Location

Airport:

Trip Planner

Search our weather history database for the weather conditions in past years. The results will help you decide how hot, cold, wet, or windy it might be!

Date:

Astronomy

Apr. 09, 2013 Rise Set
Actual Time 7:04 AM EDT 7:56 PM EDT
Civil Twilight 6:38 AM EDT 8:22 PM EDT
Nautical Twilight 6:08 AM EDT 8:52 PM EDT
Astronomical Twilight 5:37 AM EDT 9:24 PM EDT
Moon 6:25 AM EDT (4/9) 7:30 PM EDT (4/9)
Length of Visible Light 13h 43m
Length of Day
12h 52m
Waning Crescent, 1% of the Moon is Illuminated
Apr 9
Waning Crescent
Apr 10
New
Apr 18
First Quarter
Apr 25
Full
May 2
Last Quarter

Hourly Weather History & Observations

Time (EDT) Temp. Heat Index Dew Point Humidity Pressure Visibility Wind Dir Wind Speed Gust Speed Precip Events Conditions
12:53 AM 60.1 °F - 50.0 °F 69% 30.09 in 10.0 mi SSW 4.6 mph - N/A   Clear
1:53 AM 59.0 °F - 51.1 °F 75% 30.09 in 10.0 mi SSW 4.6 mph - N/A   Clear
2:53 AM 57.9 °F - 50.0 °F 75% 30.08 in 10.0 mi SSW 3.5 mph - N/A   Clear
3:53 AM 57.9 °F - 51.1 °F 78% 30.08 in 10.0 mi SW 4.6 mph - N/A   Clear
4:53 AM 57.0 °F - 51.1 °F 81% 30.10 in 10.0 mi SSW 4.6 mph - N/A   Clear
5:53 AM 55.9 °F - 52.0 °F 87% 30.11 in 10.0 mi Calm Calm - N/A   Clear
6:53 AM 55.9 °F - 52.0 °F 87% 30.13 in 10.0 mi SSW 5.8 mph - N/A   Clear
7:53 AM 57.9 °F - 53.1 °F 84% 30.15 in 10.0 mi Calm Calm - N/A   Clear
8:53 AM 64.0 °F - 55.0 °F 73% 30.17 in 10.0 mi South 4.6 mph - N/A   Clear
9:53 AM 66.9 °F - 55.0 °F 66% 30.18 in 10.0 mi SSW 3.5 mph - N/A   Clear
10:53 AM 73.0 °F - 57.0 °F 57% 30.18 in 10.0 mi Variable 3.5 mph - N/A   Clear
11:53 AM 77.0 °F - 57.0 °F 50% 30.18 in 10.0 mi South 4.6 mph - N/A   Partly Cloudy
12:53 PM 79.0 °F - 55.9 °F 45% 30.16 in 10.0 mi Calm Calm - N/A   Scattered Clouds
1:53 PM 80.1 °F 80.1 °F 55.0 °F 42% 30.14 in 10.0 mi SW 9.2 mph - N/A   Scattered Clouds
2:53 PM 80.1 °F 80.0 °F 54.0 °F 40% 30.13 in 10.0 mi West 9.2 mph - N/A   Overcast
3:53 PM 81.0 °F 80.5 °F 54.0 °F 39% 30.11 in 10.0 mi SSW 12.7 mph 20.7 mph N/A   Partly Cloudy
4:53 PM 82.0 °F 81.3 °F 54.0 °F 38% 30.09 in 10.0 mi SSW 13.8 mph - N/A   Partly Cloudy
5:53 PM 80.1 °F 79.9 °F 53.1 °F 39% 30.09 in 10.0 mi SW 12.7 mph - N/A   Scattered Clouds
6:53 PM 79.0 °F - 53.1 °F 40% 30.09 in 10.0 mi SW 11.5 mph 18.4 mph N/A   Mostly Cloudy
6:57 PM 78.8 °F - 53.6 °F 42% 30.11 in 10.0 mi SW 11.5 mph 18.4 mph N/A   Scattered Clouds
7:53 PM 75.0 °F - 54.0 °F 48% 30.09 in 10.0 mi SW 5.8 mph - N/A   Scattered Clouds
8:53 PM 72.0 °F - 55.0 °F 55% 30.10 in 10.0 mi SSW 5.8 mph - N/A   Scattered Clouds
9:53 PM 69.1 °F - 55.0 °F 61% 30.10 in 10.0 mi South 5.8 mph - N/A   Clear
10:53 PM 66.9 °F - 55.0 °F 66% 30.08 in 10.0 mi South 6.9 mph - N/A   Clear
11:53 PM 64.9 °F - 55.0 °F 70% 30.08 in 10.0 mi SW 5.8 mph - N/A   Clear